Aguacate, Mexico

1:17 PM CST on December 09, 2016 (GMT -0600)
Don Miguel Hidalgo International

Weather History for MMGL - January, 2013

Change the Weather History Date:

Tuesday, January 15, 2013

  Actual Average Record
Temperature  
Mean Temperature 60 °F -  
Max Temperature 77 °F 73 °F 80 °F (2006)
Min Temperature 44 °F 37 °F 32 °F (1997)
Degree Days  
Heating Degree Days 4    
Growing Degree Days 10 (Base 50)    
Moisture  
Dew Point 44 °F    
Average Humidity 59    
Maximum Humidity 93    
Minimum Humidity 24    
Precipitation  
Precipitation 0.00 in - - ()
Sea Level Pressure  
Sea Level Pressure 30.03 in    
Wind  
Wind Speed 2 mph ()    
Max Wind Speed 14 mph    
Max Gust Speed -    
Visibility 9.8 miles    
Events      
Averages and records for this station are not official NWS values.
T = Trace of Precipitation, MM = Missing Value Source: Averaged Metar Reports

Daily Weather History Graph

Daily Weather History Graph

Search for Another Location

Airport or City:

Trip Planner

Search our weather history database for the weather conditions in past years. The results will help you decide how hot, cold, wet, or windy it might be!

Date:

Astronomy

Jan. 15, 2013 Rise Set
Actual Time 7:31 AM CST 6:33 PM CST
Civil Twilight 7:08 AM CST 6:57 PM CST
Nautical Twilight 6:41 AM CST 7:24 PM CST
Astronomical Twilight 6:14 AM CST 7:51 PM CST
Moon 10:18 AM CST (1/15) 10:41 PM CST (1/15)
Length of Visible Light 11h 49m
Length of Day
11h 01m
Waxing Crescent, 19% of the Moon is Illuminated
Jan 15
Waxing Crescent
Jan 18
First Quarter
Jan 26
Full
Feb 3
Last Quarter
Feb 10
New

Hourly Weather History & Observations

Time (CST) Temp. Dew Point Humidity Pressure Visibility Wind Dir Wind Speed Gust Speed Precip Events Conditions
12:46 AM 53.6 °F 46.4 °F 77% 30.14 in 10.0 mi Calm Calm - N/A   Scattered Clouds
1:49 AM 51.8 °F 46.4 °F 82% 30.15 in 10.0 mi Calm Calm - N/A   Mostly Cloudy
2:54 AM 51.8 °F 46.4 °F 82% 29.89 in 10.0 mi Calm Calm - N/A   Mostly Cloudy
3:56 AM 48.2 °F 44.6 °F 87% 30.13 in 10.0 mi Calm Calm - N/A   Scattered Clouds
4:54 AM 48.2 °F 44.6 °F 87% 30.13 in 10.0 mi Calm Calm - N/A   Scattered Clouds
5:46 AM 48.2 °F 44.6 °F 87% 29.88 in 10.0 mi South 3.5 mph - N/A   Scattered Clouds
6:53 AM 46.4 °F 44.6 °F 93% 30.13 in 10.0 mi Calm Calm - N/A   Scattered Clouds
7:57 AM 44.6 °F 42.8 °F 93% 30.15 in 10.0 mi Calm Calm - N/A   Mostly Cloudy
8:50 AM 53.6 °F 48.2 °F 82% 29.96 in 10.0 mi Calm Calm - N/A   Scattered Clouds
9:51 AM 59.0 °F 48.2 °F 67% 30.17 in 10.0 mi SE 4.6 mph - N/A   Scattered Clouds
10:46 AM 64.4 °F 50.0 °F 59% 30.15 in 10.0 mi ENE 4.6 mph - N/A   Partly Cloudy
11:55 AM 69.8 °F 48.2 °F 46% 29.90 in 8.0 mi NW 5.8 mph - N/A   Partly Cloudy
12:51 PM 73.4 °F 42.8 °F 33% 30.08 in 8.0 mi Calm Calm - N/A   Scattered Clouds
1:52 PM 77.0 °F 41.0 °F 28% 30.05 in 10.0 mi Calm Calm - N/A   Mostly Cloudy
2:48 PM 77.0 °F 37.4 °F 24% 29.77 in 10.0 mi SSW 4.6 mph - N/A   Mostly Cloudy
3:43 PM 77.0 °F 37.4 °F 24% 30.01 in 10.0 mi West 10.4 mph - N/A   Mostly Cloudy
4:49 PM 77.0 °F 37.4 °F 24% 30.01 in 10.0 mi West 11.5 mph - N/A   Mostly Cloudy
5:53 PM 75.2 °F 37.4 °F 25% 29.82 in 10.0 mi WNW 13.8 mph - N/A   Mostly Cloudy
6:44 PM 77.0 °F 69.8 °F 78% 30.06 in 10.0 mi West 8.1 mph - N/A   Mostly Cloudy
7:45 PM 66.2 °F 37.4 °F 35% 30.08 in 10.0 mi WSW 4.6 mph - N/A   Scattered Clouds
8:43 PM 66.2 °F 35.6 °F 32% 29.89 in 10.0 mi WSW 9.2 mph - N/A   Mostly Cloudy
9:44 PM 62.6 °F 41.0 °F 45% 30.11 in 10.0 mi WSW 5.8 mph - N/A   Mostly Cloudy
10:44 PM 60.8 °F 44.6 °F 55% 30.11 in 10.0 mi WSW 4.6 mph - N/A   Mostly Cloudy
11:52 PM 57.2 °F 46.4 °F 67% 29.86 in 10.0 mi Calm Calm - N/A   Mostly Cloudy